This is the latest recevied weather packets stored in our database for station/object KD7CTY. If no packets are shown the sender has not sent any weather packets the latest 10 day(s).
| Time | Temp. | Humidity | Pressure | Rain* | Wind** | Luminosity | Snow |
|---|---|---|---|---|---|---|---|
| 1777421649 | 11.67° C | 81% | 1022.2 hPa | 0 mm | - | 64 W/m² | - |
| 1777421343 | 11.67° C | 80% | 1022.1 hPa | 0 mm | - | 65 W/m² | - |
| 1777421040 | 11.67° C | 79% | 1022.2 hPa | 0 mm | - | 64 W/m² | - |
| 1777420736 | 11.67° C | 78% | 1022.1 hPa | 0 mm | - | 64 W/m² | - |
| 1777420433 | 11.67° C | 79% | 1021.9 hPa | 0 mm | - | 64 W/m² | - |
| 1777420129 | 11.67° C | 79% | 1022.1 hPa | 0 mm | - | 68 W/m² | - |
| 1777419825 | 12.22° C | 79% | 1022.2 hPa | 0 mm | - | 81 W/m² | - |
| 1777419523 | 12.22° C | 78% | 1022 hPa | 0 mm | - | 94 W/m² | - |
| 1777419222 | 12.22° C | 76% | 1022.1 hPa | 0 mm | - | 78 W/m² | - |
| 1777418919 | 12.22° C | 75% | 1022 hPa | 0 mm | - | 77 W/m² | - |
| 1777418614 | 12.22° C | 74% | 1021.8 hPa | 0 mm | - | 93 W/m² | - |
| 1777418311 | 12.78° C | 74% | 1022 hPa | 0 mm | - | 98 W/m² | - |
| 1777418007 | 12.78° C | 74% | 1021.8 hPa | 0 mm | - | 104 W/m² | - |
| 1777417702 | 13.33° C | 73% | 1022.1 hPa | 0 mm | - | 135 W/m² | - |
| 1777417398 | 12.78° C | 75% | 1022.1 hPa | 0 mm | - | 200 W/m² | - |
| 1777417095 | 12.78° C | 74% | 1021.9 hPa | 0 mm | - | 232 W/m² | - |
| 1777416790 | 12.78° C | 75% | 1021.9 hPa | 0 mm | - | 232 W/m² | - |
| 1777416485 | 12.78° C | 75% | 1021.9 hPa | 0 mm | - | 250 W/m² | - |
| 1777416182 | 13.33° C | 74% | 1021.9 hPa | 0 mm | - | 270 W/m² | - |
| 1777415876 | 12.78° C | 76% | 1022 hPa | 0 mm | - | 301 W/m² | - |
| 1777415572 | 12.22° C | 77% | 1021.8 hPa | 0 mm | - | 262 W/m² | - |
| 1777415268 | 12.22° C | 78% | 1021.9 hPa | 0 mm | - | 215 W/m² | - |
| 1777414963 | 12.22° C | 78% | 1022 hPa | 0 mm | - | 197 W/m² | - |
| 1777414663 | 12.22° C | 78% | 1022.3 hPa | 0 mm | - | 191 W/m² | - |
| 1777414358 | 11.67° C | 79% | 1022.1 hPa | 0 mm | - | 177 W/m² | - |
* Rain latest hour (hover to see other rain measurements)
** Current wind speed in m/s (hover to see current wind gust speed)